St. Cloud, MN

7:38 AM CDT on April 23, 2018 (GMT -0500)
Saint Cloud Regional

Weather History for KSTC - October, 2010

Change the Weather History Date:

Sunday, October 31, 2010

  Actual Average Record
Temperature  
Mean Temperature 36 °F 39 °F  
Max Temperature 48 °F 49 °F 77 °F (1950)
Min Temperature 23 °F 30 °F 10 °F (1951)
Degree Days  
Heating Degree Days 29 26  
Month to date heating degree days 476 599  
Since 1 July heating degree days 721 885  
Cooling Degree Days 0 0  
Month to date cooling degree days 2 2  
Year to date cooling degree days 606 465  
Moisture  
Dew Point 27 °F    
Average Humidity 75    
Maximum Humidity 100    
Minimum Humidity 49    
Precipitation  
Precipitation 0.00 in 0.06 in 1.42 in (1922)
Month to date precipitation 2.59 2.49  
Year to date precipitation 30.37 25.53  
Snow  
Snow 0.00 in 0.10 in 3.10 in (1991)
Month to date snowfall T 0.8  
Since 1 July snowfall T 0.8  
Since 1 September snowfall T 0.8  
Snow Depth 0.00 in    
Sea Level Pressure  
Sea Level Pressure 30.28 in    
Wind  
Wind Speed 2 mph (SSE)    
Max Wind Speed 9 mph    
Max Gust Speed 12 mph    
Visibility 10 miles    
Events      
T = Trace of Precipitation, MM = Missing Value Source: NWS Daily Summary

Daily Weather History Graph

Daily Weather History Graph

Search for Another Location

Airport or City:

Astronomy

Oct. 31, 2010 Rise Set
Actual Time 7:54 AM CDT 6:04 PM CDT
Civil Twilight 7:23 AM CDT 6:35 PM CDT
Nautical Twilight 6:48 AM CDT 7:10 PM CDT
Astronomical Twilight 6:14 AM CDT 7:44 PM CDT
Moon 1:01 AM CDT (10/31) 2:58 PM CDT (10/31)
Length of Visible Light 11h 11m
Length of Day
10h 10m
Last Quarter, 37% of the Moon is Illuminated
Oct 31
Last Quarter
Nov 5
New
Nov 13
First Quarter
Nov 21
Full
Nov 28
Last Quarter

Hourly Weather History & Observations

Time (CDT) Temp. Windchill Dew Point Humidity Pressure Visibility Wind Dir Wind Speed Gust Speed Precip Events Conditions
12:53 AM 28.9 °F - 26.1 °F 89% 30.19 in 10.0 mi Calm Calm - N/A   Clear
1:53 AM 28.0 °F - 26.1 °F 92% 30.20 in 10.0 mi Calm Calm - N/A   Clear
2:53 AM 27.0 °F 21.6 °F 26.1 °F 96% 30.22 in 10.0 mi North 4.6 mph - N/A   Clear
3:53 AM 26.6 °F 22.6 °F 26.6 °F 100% 30.17 in 10.0 mi North 3.5 mph - N/A   Clear
4:53 AM 26.1 °F - 24.1 °F 92% 30.24 in 10.0 mi Calm Calm - N/A   Clear
5:53 AM 25.0 °F - 24.1 °F 96% 30.27 in 9.0 mi Calm Calm - N/A   Clear
6:53 AM 25.0 °F - 23.0 °F 92% 30.26 in 7.0 mi Calm Calm - N/A   Clear
7:53 AM 24.1 °F - 21.9 °F 91% 30.27 in 9.0 mi Calm Calm - N/A   Clear
8:53 AM 27.0 °F - 25.0 °F 92% 30.27 in 10.0 mi Calm Calm - N/A   Clear
9:53 AM 34.0 °F - 30.9 °F 89% 30.31 in 10.0 mi Calm Calm - N/A   Clear
10:53 AM 39.0 °F 34.8 °F 30.0 °F 70% 30.33 in 10.0 mi SSE 5.8 mph - N/A   Clear
11:53 AM 41.0 °F 36.4 °F 30.0 °F 65% 30.33 in 10.0 mi SSE 6.9 mph - N/A   Clear
12:53 PM 42.8 °F 40.1 °F 30.2 °F 61% 30.26 in 10.0 mi South 4.6 mph - N/A   Clear
1:53 PM 44.1 °F - 30.0 °F 58% 30.30 in 10.0 mi Calm Calm - N/A   Clear
2:53 PM 46.9 °F - 30.0 °F 52% 30.28 in 10.0 mi Calm Calm - N/A   Clear
3:53 PM 46.9 °F - 28.0 °F 48% 30.28 in 10.0 mi Calm Calm - N/A   Clear
4:53 PM 46.9 °F - 30.0 °F 52% 30.28 in 10.0 mi SSW 5.8 mph - N/A   Clear
5:53 PM 43.0 °F 40.3 °F 30.0 °F 60% 30.30 in 10.0 mi SSW 4.6 mph - N/A   Clear
6:53 PM 37.0 °F - 30.0 °F 76% 30.31 in 10.0 mi Calm Calm - N/A   Clear
7:53 PM 32.0 °F 28.7 °F 28.9 °F 88% 30.32 in 10.0 mi ESE 3.5 mph - N/A   Clear
8:53 PM 32.0 °F - 28.0 °F 85% 30.33 in 10.0 mi Calm Calm - N/A   Clear
9:53 PM 30.0 °F - 28.0 °F 92% 30.34 in 8.0 mi Calm Calm - N/A   Clear
10:53 PM 28.0 °F - 26.1 °F 92% 30.36 in 10.0 mi Calm Calm - N/A   Clear
11:53 PM 28.0 °F - 26.1 °F 92% 30.37 in 10.0 mi Calm Calm - N/A   Clear